COSMOS 1275 DEB, 42129

Orbit data source: Space-Track

COSMOS 1275 DEB, 42129 is space debris in LEO originally from a launch on Thu, 04 Jun 1981 UTC launched from the Plesetsk Missile And Space Complex (PKMTR). Debris objects in space refer to the collection of defunct objects orbiting the Earth. Examples of debris include non-operational satellites, rocket bodies, and fragments generated from explosions, collisions, or faulty payload assembly.

Loading next visibility...
Identifier
42129, 1981-053QR
Orbit
LEO
Country
Flag of CISCIS
Related business
Manufacturer
Unknown
Mission
Spacecraft
Bus & Motor
Unknown
Mass
Unknown
Launch date (UTC)
1981-06-04 (45 years ago)
Launch vehicle
Unknown
Launch site
Plesetsk Missile And Space Complex (PKMTR)
Object type
Payload
Rocket body
Debris
Shape & HBR
Unknown shape, 0.1 m
Radar Cross Section
Small (<0.1 m²)

Expand to show TLE details & history
Last TLE update: 1 month ago

TLE from 1 month ago
0 COSMOS 1275 DEB
1 42129U 81053QR  25361.06664527  .00001176  00000-0  90871-3 0  9991
2 42129  82.8435 118.0050 0060394  59.9619 300.7518 13.91163277573780
Epoch: 2025-12-27T01:35Z
TLE epoch observation values (Epoch: 2025-12-27T01:35:58.151Z)
Latitude
-0.00002°
Longitude
-1.78561°
Altitude
905.119 km
Speed
7.411 km/s
True Right ascension
07h 52m 01s
True Declination
0° 00' 00"
Sunlit
Object was in full shadow at epoch
Visualization orbit readout
Latitude
Unknown
Longitude
Unknown
Altitude
Unknown
Speed
Unknown
Apparent Right ascension
Unknown
Apparent Declination
Unknown
Sunlit
N/A
Visualization observer readout
Local Sidereal Time
20:38:49
Azimuth
Unknown
Elevation
Unknown
Doppler factor
Unknown
Orbital elements
Apogee altitude
965.774 km
Perigee altitude
877.601 km
Semi-major axis
7,299.824 km
Eccentricity
0.00604
Inclination
82.8435°
RAAN
118.005°
Arg. of periapsis
59.9619°
True anomaly
300.15475°
Mean anomaly
300.7518°
Eccentric anomaly
300.45351°
Mean motion
3.47996 °/min
Orbital period
103.45 mins
BSTAR
0.00090871
Loading maneuver chart data...
Computing Atmospheric mass density...
Loading historical data...
Loading historical data...
Loading historical data...
Loading historical data...
Loading historical data...
Loading historical data...
Loading historical data...

Documentation

Showing up to 5 results
|